DW7901 Weather Reports


Display with metric or nautical units.
time (UTC)temp
F
wind
direction
speed
MPH
gust
MPH
rain 1hr
in
rain 24hr
in
rain mn
in
humidity
%
barometer
mb
20260905214004 62 294 4.0 8.0 0.00 0.02 0.02 55 1020.6
20260905213006 61 296 2.0 11.0 0.00 0.02 0.02 56 1019.9
20260905212004 61 235 4.0 10.0 0.00 0.02 0.02 57 1019.8
20260905211004 61 306 2.0 6.0 0.00 0.02 0.02 56 1019.8
20260905210004 61 260 2.0 6.0 0.00 0.02 0.02 56 1019.9
20260905205004 61 235 1.0 7.0 0.00 0.02 0.02 56 1019.6
20260905204004 61 209 1.0 6.0 0.00 0.02 0.02 55 1019.7
20260905202004 61 303 3.0 5.0 0.00 0.02 0.02 55 1019.9
20260905200004 60 259 2.0 5.0 0.00 0.02 0.02 58 1019.6
20260905195004 60 251 3.0 4.0 0.00 0.02 0.02 58 1019.8
20260905194004 60 244 2.0 4.0 0.00 0.02 0.02 57 1019.6
20260905192004 61 253 0.0 4.0 0.00 0.02 0.02 53 1019.6
20260905190005 61 338 4.0 7.0 0.00 0.02 0.02 55 1019.6
20260905185003 61 250 1.0 3.0 0.00 0.02 0.02 52 1019.3
20260905184004 62 235 1.0 4.0 0.00 0.02 0.02 51 1019.2
20260905182004 63 242 1.0 4.0 0.00 0.02 0.02 48 1019.0
20260905181004 64 238 3.0 6.0 0.00 0.02 0.02 47 1019.2
20260905180005 64 231 2.0 4.0 0.00 0.02 0.02 46 1019.2
20260905175004 65 222 2.0 8.0 0.00 0.02 0.02 45 1019.1
20260905174004 66 234 2.0 5.0 0.00 0.02 0.02 44 1019.2
20260905173005 67 234 2.0 7.0 0.00 0.02 0.02 42 1019.0
20260905172004 67 240 2.0 5.0 0.00 0.02 0.02 41 1019.0
20260905171003 68 260 2.0 7.0 0.00 0.02 0.02 39 1019.1
20260905170004 68 266 1.0 8.0 0.00 0.02 0.02 37 1018.8
20260905165004 69 313 2.0 8.0 0.00 0.02 0.02 35 1018.8
20260905164004 70 334 3.0 9.0 0.00 0.02 0.02 33 1019.0
20260905163004 71 266 3.0 12.0 0.00 0.02 0.02 32 1018.9
20260905160004 73 310 5.0 15.0 0.00 0.02 0.02 28 1018.5
20260905155004 76 266 4.0 15.0 0.00 0.02 0.02 24 1018.6
20260905154004 77 322 4.0 16.0 0.00 0.02 0.02 23 1018.2
20260905153004 75 268 8.0 15.0 0.00 0.02 0.02 27 1018.5
20260905152004 71 333 7.0 17.0 0.00 0.02 0.02 30 1018.4
20260905151004 73 305 9.0 17.0 0.00 0.02 0.02 28 1018.4
20260905144004 77 313 2.0 17.0 0.00 0.02 0.02 28 1018.2
20260905143004 76 312 9.0 23.0 0.00 0.02 0.02 27 1018.2
20260905142004 77 222 5.0 22.0 0.00 0.02 0.02 25 1018.1
20260905141004 75 340 9.0 20.0 0.00 0.02 0.02 29 1017.8
20260905140005 74 300 15.0 22.0 0.00 0.02 0.02 32 1018.0
20260905135004 72 328 8.0 18.0 0.00 0.02 0.02 32 1018.0
20260905134003 73 337 11.0 18.0 0.00 0.02 0.02 32 1018.0
20260905133005 75 278 7.0 23.0 0.00 0.02 0.02 31 1018.0
20260905132004 74 269 8.0 19.0 0.00 0.02 0.02 32 1017.6
20260905131004 74 313 4.0 21.0 0.00 0.02 0.02 32 1017.8
20260905130005 73 314 7.0 21.0 0.00 0.02 0.02 31 1017.7
20260905125004 76 283 14.0 24.0 0.00 0.02 0.02 32 1017.9
20260905124004 73 318 13.0 23.0 0.00 0.02 0.02 32 1017.9
20260905123005 73 334 9.0 19.0 0.00 0.02 0.02 33 1018.1
20260905122004 75 291 8.0 16.0 0.00 0.02 0.02 31 1018.1
20260905121004 76 311 2.0 19.0 0.00 0.02 0.02 32 1018.1
20260905120005 73 295 7.0 15.0 0.00 0.02 0.02 38 1018.3
20260905115004 72 270 7.0 20.0 0.00 0.02 0.02 38 1018.3
20260905114004 75 184 8.0 18.0 0.00 0.02 0.02 35 1018.2
20260905113004 74 254 4.0 22.0 0.00 0.02 0.02 36 1018.4
20260905112004 74 253 3.0 16.0 0.00 0.02 0.02 38 1018.4
20260905104004 71 296 11.0 21.0 0.00 0.02 0.02 43 1018.4
20260905103004 70 232 4.0 15.0 0.00 0.02 0.02 49 1018.1
20260905102004 70 250 2.0 18.0 0.00 0.02 0.02 49 1018.1
20260905101004 71 268 5.0 17.0 0.00 0.02 0.02 49 1018.0
20260905095004 69 270 6.0 21.0 0.00 0.02 0.02 52 1017.9
20260905094004 70 295 6.0 16.0 0.00 0.02 0.02 50 1018.1
20260905093004 71 303 12.0 21.0 0.00 0.02 0.02 52 1017.8
20260905091004 69 293 2.0 20.0 0.00 0.02 0.02 55 1017.8
20260905090004 69 251 10.0 22.0 0.00 0.02 0.02 56 1018.0
20260905085003 68 199 5.0 17.0 0.00 0.02 0.02 60 1018.1
20260905084005 67 238 4.0 18.0 0.00 0.02 0.02 63 1017.9
20260905083004 66 261 9.0 22.0 0.00 0.02 0.02 65 1018.0